,,,PA_Meas_PMT16A,,PR_Meas_QMR101_102,,RH_Meas_QMH101,,SR_Meas_QMS101,,TA_Meas_QMH101,,GenWind,,GenWind,
date,time,status,PA,status,PR,status,RH,status,SR,status,TA,status,DirAvg,status,SpdAvg,
2010-05-17, 00:00:04,VALID,1003.18,VALID,0,VALID,95.5288,VALID,0,VALID,25.2027,VALID,9,VALID,0.464453,
2010-05-17, 00:01:04,VALID,1003.16,VALID,0,VALID,95.6585,VALID,0,VALID,25.1851,VALID,9,VALID,0.498437,
2010-05-17, 00:02:04,VALID,1003.09,VALID,0,VALID,95.7348,VALID,0,VALID,25.1442,VALID,9,VALID,0.493359,
2010-05-17, 00:03:04,VALID,1003.09,VALID,0,VALID,95.9027,VALID,0,VALID,25.1656,VALID,9,VALID,0.510938,
2010-05-17, 00:04:04,VALID,1003.06,VALID,0,VALID,95.9866,VALID,0,VALID,25.1267,VALID,9,VALID,0.463281,
2010-05-17, 00:05:04,VALID,1003.04,VALID,0,VALID,96.0171,VALID,0,VALID,25.0858,VALID,9,VALID,0.321484,
2010-05-17, 00:06:04,VALID,1003.01,VALID,0,VALID,96.0781,VALID,0,VALID,25.0877,VALID,9,VALID,0.177734,
2010-05-17, 00:07:04,VALID,1003.01,VALID,0,VALID,96.1239,VALID,0,VALID,25.0488,VALID,9,VALID,0.151562,
2010-05-17, 00:08:04,VALID,1002.99,VALID,0,VALID,96.2231,VALID,0,VALID,25.0274,VALID,9,VALID,0.0648438,
2010-05-17, 00:09:04,VALID,1002.96,VALID,0,VALID,96.2688,VALID,0,VALID,25.0488,VALID,9,VALID,0,
2010-05-17, 00:10:04,VALID,1002.95,VALID,0,VALID,96.3146,VALID,0,VALID,25.0079,VALID,9,VALID,0,
2010-05-17, 00:11:04,VALID,1002.92,VALID,0,VALID,96.3451,VALID,0,VALID,24.9885,VALID,9,VALID,0.339063,
2010-05-17, 00:12:04,VALID,1002.91,VALID,0,VALID,96.4062,VALID,0,VALID,24.969,VALID,9,VALID,0.323047,
2010-05-17, 00:13:04,VALID,1002.88,VALID,0,VALID,96.429,VALID,0,VALID,24.9885,VALID,9,VALID,0.162891,
2010-05-17, 00:14:04,VALID,1002.85,VALID,0,VALID,96.4748,VALID,0,VALID,24.969,VALID,9,VALID,0.176563,
2010-05-17, 00:15:04,VALID,1002.82,VALID,0,VALID,96.5206,VALID,0,VALID,24.9866,VALID,9,VALID,0.320703,
2010-05-17, 00:16:04,VALID,1002.81,VALID,0,VALID,96.5664,VALID,0,VALID,25.0079,VALID,9,VALID,0.425,
2010-05-17, 00:17:04,VALID,1002.81,VALID,0,VALID,96.6121,VALID,0,VALID,24.9885,VALID,9,VALID,0.358203,
2010-05-17, 00:18:04,VALID,1002.8,VALID,0,VALID,96.5969,VALID,0,VALID,24.9671,VALID,9,VALID,0.360547,
2010-05-17, 00:19:04,VALID,1002.75,VALID,0,VALID,96.5969,VALID,0,VALID,24.9885,VALID,9,VALID,0.400391,
2010-05-17, 00:20:04,VALID,1002.75,VALID,0,VALID,96.6198,VALID,0,VALID,24.9671,VALID,9,VALID,0.580078,
2010-05-17, 00:21:04,VALID,1002.74,VALID,0,VALID,96.6274,VALID,0,VALID,24.9671,VALID,9,VALID,0.51875,
2010-05-17, 00:22:04,VALID,1002.74,VALID,0,VALID,96.6503,VALID,0,VALID,24.9476,VALID,9,VALID,0.326562,
2010-05-17, 00:23:04,VALID,1002.71,VALID,0,VALID,96.6198,VALID,0.100563,VALID,24.9495,VALID,9,VALID,0.30625,
2010-05-17, 00:24:04,VALID,1002.68,VALID,0,VALID,96.6427,VALID,0,VALID,24.93,VALID,9,VALID,0.283203,
2010-05-17, 00:25:04,VALID,1002.66,VALID,0,VALID,96.6503,VALID,0,VALID,24.8873,VALID,9,VALID,0.251953,
2010-05-17, 00:26:04,VALID,1002.69,VALID,0,VALID,96.6579,VALID,0,VALID,24.8892,VALID,9,VALID,0.1625,
2010-05-17, 00:27:04,VALID,1002.63,VALID,0,VALID,96.6503,VALID,0,VALID,24.8697,VALID,9,VALID,0.279297,
2010-05-17, 00:28:04,VALID,1002.62,VALID,0,VALID,96.6503,VALID,0,VALID,24.854,VALID,9,VALID,0.363672,
2010-05-17, 00:29:04,VALID,1002.59,VALID,0,VALID,96.6732,VALID,0,VALID,24.8522,VALID,9,VALID,0.485547,
2010-05-17, 00:30:04,VALID,1002.57,VALID,0,VALID,96.6732,VALID,0.100563,VALID,24.7919,VALID,9,VALID,0.464844,
2010-05-17, 00:31:04,VALID,1002.56,VALID,0,VALID,96.7266,VALID,0,VALID,24.8113,VALID,6,VALID,0.700781,
2010-05-17, 00:32:04,VALID,1002.52,VALID,0,VALID,96.7952,VALID,0,VALID,24.8522,VALID,360,VALID,0.505469,
2010-05-17, 00:33:04,VALID,1002.51,VALID,0,VALID,96.8334,VALID,0,VALID,24.8522,VALID,360,VALID,0.619922,
2010-05-17, 00:34:04,VALID,1002.52,VALID,0,VALID,96.8563,VALID,0,VALID,24.8327,VALID,360,VALID,0.449609,
2010-05-17, 00:35:04,VALID,1002.51,VALID,0,VALID,96.8563,VALID,0.100563,VALID,24.8113,VALID,360,VALID,0.390234,
2010-05-17, 00:36:04,VALID,1002.49,VALID,0,VALID,96.8792,VALID,0,VALID,24.8327,VALID,360,VALID,0.387891,
2010-05-17, 00:37:04,VALID,1002.47,VALID,0,VALID,96.8792,VALID,0,VALID,24.8113,VALID,360,VALID,0.150781,
2010-05-17, 00:38:04,VALID,1002.48,VALID,0,VALID,96.8944,VALID,0,VALID,24.8113,VALID,360,VALID,0.00585938,
2010-05-17, 00:39:04,VALID,1002.45,VALID,0,VALID,96.9173,VALID,0.100563,VALID,24.79,VALID,360,VALID,0,
2010-05-17, 00:40:04,VALID,1002.42,VALID,0,VALID,96.9173,VALID,0,VALID,24.8113,VALID,360,VALID,0.0015625,
2010-05-17, 00:41:04,VALID,1002.45,VALID,0,VALID,96.9173,VALID,0,VALID,24.8327,VALID,360,VALID,0.246875,
2010-05-17, 00:42:04,VALID,1002.4,VALID,0,VALID,96.9402,VALID,0,VALID,24.79,VALID,360,VALID,0.384375,
2010-05-17, 00:43:04,VALID,1002.43,VALID,0,VALID,96.9631,VALID,0,VALID,24.7919,VALID,360,VALID,0.35,
2010-05-17, 00:44:04,VALID,1002.44,VALID,0,VALID,96.9478,VALID,0,VALID,24.7919,VALID,360,VALID,0.356641,
2010-05-17, 00:45:04,VALID,1002.41,VALID,0,VALID,96.9707,VALID,0,VALID,24.7919,VALID,360,VALID,0.419922,
2010-05-17, 00:46:04,VALID,1002.37,VALID,0,VALID,96.9631,VALID,0,VALID,24.8113,VALID,11,VALID,0.871484,
2010-05-17, 00:47:04,VALID,1002.34,VALID,0,VALID,96.9936,VALID,0,VALID,24.9106,VALID,22,VALID,0.388281,
2010-05-17, 00:48:04,VALID,1002.35,VALID,0,VALID,97.0317,VALID,0,VALID,24.9476,VALID,20,VALID,0.587891,
2010-05-17, 00:49:04,VALID,1002.37,VALID,0,VALID,97.0317,VALID,0.100563,VALID,25.0255,VALID,30,VALID,0.567578,
2010-05-17, 00:50:04,VALID,1002.38,VALID,0,VALID,97.0775,VALID,0,VALID,25.045,VALID,30,VALID,0.453906,
2010-05-17, 00:51:04,VALID,1002.41,VALID,0,VALID,97.0546,VALID,0,VALID,25.0644,VALID,30,VALID,0.29375,
2010-05-17, 00:52:04,VALID,1002.39,VALID,0,VALID,97.0165,VALID,0,VALID,25.0858,VALID,30,VALID,0,
2010-05-17, 00:53:04,VALID,1002.37,VALID,0,VALID,96.9554,VALID,0,VALID,25.0839,VALID,36,VALID,0.295703,
2010-05-17, 00:54:04,VALID,1002.34,VALID,0,VALID,96.9249,VALID,0,VALID,25.0839,VALID,36,VALID,0.363672,
2010-05-17, 00:55:04,VALID,1002.34,VALID,0,VALID,96.8486,VALID,0,VALID,25.0644,VALID,36,VALID,0.450781,
2010-05-17, 00:56:04,VALID,1002.34,VALID,0,VALID,96.7571,VALID,0.100563,VALID,25.0431,VALID,36,VALID,0.229687,
2010-05-17, 00:57:04,VALID,1002.35,VALID,0,VALID,96.7113,VALID,0.100563,VALID,25.0644,VALID,36,VALID,0.258594,
2010-05-17, 00:58:04,VALID,1002.35,VALID,0,VALID,96.6808,VALID,0.100563,VALID,25.0644,VALID,36,VALID,0.0949219,
2010-05-17, 00:59:04,VALID,1002.33,VALID,0,VALID,96.6655,VALID,0,VALID,25.0839,VALID,36,VALID,0.0132813,
2010-05-17, 01:00:04,VALID,1002.34,VALID,0,VALID,96.6427,VALID,0,VALID,25.0663,VALID,36,VALID,0.467969,
2010-05-17, 01:01:04,VALID,1002.34,VALID,0,VALID,96.635,VALID,0,VALID,25.0469,VALID,36,VALID,0.402734,
2010-05-17, 01:02:04,VALID,1002.35,VALID,0,VALID,96.6045,VALID,0,VALID,25.0274,VALID,36,VALID,0.389062,
2010-05-17, 01:03:04,VALID,1002.4,VALID,0,VALID,96.5816,VALID,0,VALID,25.0079,VALID,36,VALID,0.469922,
2010-05-17, 01:04:04,VALID,1002.43,VALID,0,VALID,96.5511,VALID,0,VALID,24.9885,VALID,36,VALID,0.328125,
2010-05-17, 01:05:04,VALID,1002.42,VALID,0,VALID,96.5587,VALID,0,VALID,24.969,VALID,36,VALID,0.279297,
2010-05-17, 01:06:04,VALID,1002.39,VALID,0,VALID,96.574,VALID,0,VALID,24.9904,VALID,36,VALID,0.0269531,
2010-05-17, 01:07:04,VALID,1002.36,VALID,0,VALID,96.6121,VALID,0,VALID,24.9495,VALID,36,VALID,0,
2010-05-17, 01:08:04,VALID,1002.36,VALID,0,VALID,96.6427,VALID,0,VALID,24.969,VALID,36,VALID,0.300781,
2010-05-17, 01:09:04,VALID,1002.34,VALID,0,VALID,96.7113,VALID,0,VALID,25.0663,VALID,34,VALID,0.667969,
2010-05-17, 01:10:04,VALID,1002.36,VALID,0,VALID,96.7876,VALID,0,VALID,25.0682,VALID,33,VALID,0.276172,
2010-05-17, 01:11:04,VALID,1002.37,VALID,0,VALID,96.7418,VALID,0,VALID,25.0469,VALID,33,VALID,0.340625,
2010-05-17, 01:12:04,VALID,1002.33,VALID,0,VALID,96.6808,VALID,0,VALID,25.0488,VALID,33,VALID,0.150781,
2010-05-17, 01:13:04,VALID,1002.36,VALID,0,VALID,96.6503,VALID,0,VALID,25.0274,VALID,33,VALID,0.196094,
2010-05-17, 01:14:04,VALID,1002.36,VALID,0,VALID,96.6121,VALID,0,VALID,25.0274,VALID,33,VALID,0.302344,
2010-05-17, 01:15:04,VALID,1002.35,VALID,0,VALID,96.6274,VALID,0,VALID,25.0469,VALID,33,VALID,0.370703,
2010-05-17, 01:16:04,VALID,1002.32,VALID,0,VALID,96.635,VALID,0,VALID,25.0274,VALID,33,VALID,0.632031,
2010-05-17, 01:17:04,VALID,1002.32,VALID,0,VALID,96.6198,VALID,0,VALID,25.0293,VALID,33,VALID,0.302344,
2010-05-17, 01:18:04,VALID,1002.33,VALID,0,VALID,96.5893,VALID,0,VALID,24.9885,VALID,33,VALID,0.334375,
2010-05-17, 01:19:04,VALID,1002.32,VALID,0,VALID,96.5969,VALID,0,VALID,24.969,VALID,33,VALID,0.301953,
2010-05-17, 01:20:04,VALID,1002.33,VALID,0,VALID,96.5969,VALID,0,VALID,24.9495,VALID,33,VALID,0.0167969,
2010-05-17, 01:21:04,VALID,1002.32,VALID,0,VALID,96.5893,VALID,0,VALID,24.93,VALID,33,VALID,0.144141,
2010-05-17, 01:22:04,VALID,1002.37,VALID,0,VALID,96.6427,VALID,0,VALID,24.969,VALID,33,VALID,0.234766,
2010-05-17, 01:23:04,VALID,1002.38,VALID,0,VALID,96.7113,VALID,0,VALID,25.0079,VALID,33,VALID,0.125,
2010-05-17, 01:24:04,VALID,1002.36,VALID,0,VALID,96.78,VALID,0,VALID,25.0079,VALID,33,VALID,0.361328,
2010-05-17, 01:25:04,VALID,1002.34,VALID,0,VALID,96.7723,VALID,0,VALID,25.0469,VALID,46,VALID,0.273047,
2010-05-17, 01:26:04,VALID,1002.36,VALID,0,VALID,96.8334,VALID,0,VALID,25.0663,VALID,58,VALID,0.394141,
2010-05-17, 01:27:04,VALID,1002.33,VALID,0,VALID,96.78,VALID,0,VALID,25.0255,VALID,58,VALID,0.407813,
2010-05-17, 01:28:04,VALID,1002.4,VALID,0,VALID,96.7266,VALID,0,VALID,25.0469,VALID,58,VALID,0.435156,
2010-05-17, 01:29:04,VALID,1002.39,VALID,0,VALID,96.6884,VALID,0,VALID,25.0488,VALID,58,VALID,0.421094,
2010-05-17, 01:30:04,VALID,1002.39,VALID,0,VALID,96.6808,VALID,0,VALID,25.0274,VALID,18,VALID,0.749609,
2010-05-17, 01:31:04,VALID,1002.36,VALID,0,VALID,96.6961,VALID,0,VALID,25.0858,VALID,7,VALID,0.987109,
2010-05-17, 01:32:04,VALID,1002.33,VALID,0,VALID,96.7952,VALID,0,VALID,25.1618,VALID,25,VALID,0.632422,
2010-05-17, 01:33:04,VALID,1002.28,VALID,0,VALID,96.8105,VALID,0,VALID,25.2416,VALID,16,VALID,0.755078,
2010-05-17, 01:34:04,VALID,1002.27,VALID,0,VALID,96.8105,VALID,0,VALID,25.2786,VALID,12,VALID,0.599609,
2010-05-17, 01:35:04,VALID,1002.23,VALID,0,VALID,96.7571,VALID,0,VALID,25.337,VALID,16,VALID,0.597656,
2010-05-17, 01:36:04,VALID,1002.21,VALID,0,VALID,96.7037,VALID,0,VALID,25.3974,VALID,16,VALID,0.155469,
2010-05-17, 01:37:04,VALID,1002.2,VALID,0,VALID,96.5435,VALID,0,VALID,25.376,VALID,16,VALID,0.490625,
2010-05-17, 01:38:04,VALID,1002.19,VALID,0,VALID,96.3451,VALID,0,VALID,25.3974,VALID,16,VALID,0.423828,
2010-05-17, 01:39:04,VALID,1002.15,VALID,0,VALID,96.1926,VALID,0,VALID,25.3779,VALID,16,VALID,0.585547,
2010-05-17, 01:40:04,VALID,1002.15,VALID,0,VALID,95.9866,VALID,0,VALID,25.3195,VALID,16,VALID,0.464844,
2010-05-17, 01:41:04,VALID,1002.1,VALID,0,VALID,95.8111,VALID,0,VALID,25.2202,VALID,16,VALID,0.514453,
2010-05-17, 01:42:04,VALID,1002.07,VALID,0,VALID,95.8721,VALID,0,VALID,25.2007,VALID,16,VALID,0.733984,
2010-05-17, 01:43:04,VALID,1002.07,VALID,0,VALID,96.0018,VALID,0,VALID,25.2221,VALID,16,VALID,0.396094,
2010-05-17, 01:44:04,VALID,1002.07,VALID,0,VALID,96.162,VALID,0,VALID,25.2416,VALID,11,VALID,0.46875,
2010-05-17, 01:45:04,VALID,1002.07,VALID,0,VALID,96.2917,VALID,0,VALID,25.3195,VALID,14,VALID,0.426562,
2010-05-17, 01:46:04,VALID,1002.1,VALID,0,VALID,96.3146,VALID,0,VALID,25.3195,VALID,14,VALID,0.292578,
2010-05-17, 01:47:04,VALID,1002.12,VALID,0,VALID,96.2688,VALID,0,VALID,25.3176,VALID,14,VALID,0.0910156,
2010-05-17, 01:48:04,VALID,1002.15,VALID,0,VALID,96.1468,VALID,0,VALID,25.3,VALID,14,VALID,0.00117188,
2010-05-17, 01:49:04,VALID,1002.15,VALID,0,VALID,96.0476,VALID,0,VALID,25.2806,VALID,14,VALID,0.0414063,
2010-05-17, 01:50:05,VALID,1002.13,VALID,0,VALID,96.0018,VALID,0,VALID,25.2611,VALID,14,VALID,0.1625,
2010-05-17, 01:51:05,VALID,1002.16,VALID,0,VALID,95.9332,VALID,0,VALID,25.2202,VALID,14,VALID,0.243359,
2010-05-17, 01:52:05,VALID,1002.16,VALID,0,VALID,95.9027,VALID,0,VALID,25.1813,VALID,14,VALID,0.505859,
2010-05-17, 01:53:05,VALID,1002.15,VALID,0,VALID,95.9866,VALID,0,VALID,25.1832,VALID,14,VALID,0.160938,
2010-05-17, 01:54:05,VALID,1002.16,VALID,0,VALID,96.0171,VALID,0,VALID,25.1637,VALID,14,VALID,0,
2010-05-17, 01:55:05,VALID,1002.17,VALID,0,VALID,96.0629,VALID,0,VALID,25.1248,VALID,14,VALID,0.0015625,
2010-05-17, 01:56:05,VALID,1002.21,VALID,0,VALID,96.0857,VALID,0,VALID,25.0644,VALID,14,VALID,0.217578,
2010-05-17, 01:57:05,VALID,1002.21,VALID,0,VALID,96.1392,VALID,0,VALID,25.0858,VALID,14,VALID,0.129688,
2010-05-17, 01:58:05,VALID,1002.23,VALID,0,VALID,96.2002,VALID,0,VALID,25.0663,VALID,14,VALID,0.439453,
2010-05-17, 01:59:05,VALID,1002.25,VALID,0,VALID,96.2917,VALID,0,VALID,25.0469,VALID,14,VALID,0.444141,
2010-05-17, 02:00:05,VALID,1002.2,VALID,0,VALID,96.368,VALID,0,VALID,25.006,VALID,14,VALID,0.432422,
2010-05-17, 02:01:05,VALID,1002.2,VALID,0,VALID,96.4367,VALID,0,VALID,25.0079,VALID,14,VALID,0.230078,
2010-05-17, 02:02:05,VALID,1002.17,VALID,0,VALID,96.513,VALID,0,VALID,24.969,VALID,14,VALID,0.664844,
2010-05-17, 02:03:05,VALID,1002.14,VALID,0,VALID,96.5893,VALID,0,VALID,24.9885,VALID,14,VALID,0.439063,
2010-05-17, 02:04:05,VALID,1002.12,VALID,0,VALID,96.7113,VALID,0,VALID,25.006,VALID,16,VALID,0.567969,
2010-05-17, 02:05:05,VALID,1002.11,VALID,0,VALID,96.7571,VALID,0,VALID,24.9671,VALID,16,VALID,0.314453,
2010-05-17, 02:06:05,VALID,1002.08,VALID,0,VALID,96.8029,VALID,0,VALID,24.9866,VALID,16,VALID,0.630469,
2010-05-17, 02:07:05,VALID,1002.08,VALID,0,VALID,96.8334,VALID,0,VALID,24.9885,VALID,16,VALID,0.452344,
2010-05-17, 02:08:05,VALID,1002.09,VALID,0,VALID,96.841,VALID,0,VALID,24.9866,VALID,16,VALID,0.692187,
2010-05-17, 02:09:05,VALID,1002.08,VALID,0,VALID,96.9173,VALID,0,VALID,25.1229,VALID,16,VALID,0.448828,
2010-05-17, 02:10:05,VALID,1002.12,VALID,0,VALID,97.0088,VALID,0,VALID,25.1229,VALID,16,VALID,0.251953,
2010-05-17, 02:11:05,VALID,1002.13,VALID,0,VALID,97.0394,VALID,0,VALID,25.045,VALID,89,VALID,0.709766,
2010-05-17, 02:12:05,VALID,1002.13,VALID,0,VALID,96.9631,VALID,0,VALID,25.0255,VALID,89,VALID,0.447266,
2010-05-17, 02:13:05,VALID,1002.13,VALID,0,VALID,96.9326,VALID,0,VALID,25.0274,VALID,89,VALID,0.297266,
2010-05-17, 02:14:05,VALID,1002.14,VALID,0,VALID,96.8944,VALID,0,VALID,25.006,VALID,89,VALID,0.355469,
2010-05-17, 02:15:05,VALID,1002.17,VALID,0,VALID,96.9097,VALID,0,VALID,25.006,VALID,70,VALID,0.594922,
2010-05-17, 02:16:05,VALID,1002.17,VALID,0,VALID,96.9097,VALID,0,VALID,25.0079,VALID,34,VALID,0.357422,
2010-05-17, 02:17:05,VALID,1002.19,VALID,0,VALID,96.9173,VALID,0,VALID,24.9885,VALID,34,VALID,0.516016,
2010-05-17, 02:18:05,VALID,1002.21,VALID,0,VALID,96.9249,VALID,0,VALID,24.9671,VALID,34,VALID,0.482422,
2010-05-17, 02:19:05,VALID,1002.21,VALID,0,VALID,96.9402,VALID,0,VALID,24.969,VALID,34,VALID,0.514844,
2010-05-17, 02:20:05,VALID,1002.18,VALID,0,VALID,96.9478,VALID,0,VALID,24.9671,VALID,34,VALID,0.373437,
2010-05-17, 02:21:05,VALID,1002.2,VALID,0,VALID,96.9936,VALID,0,VALID,24.9671,VALID,34,VALID,0.372656,
2010-05-17, 02:22:05,VALID,1002.17,VALID,0,VALID,97.0088,VALID,0,VALID,25.0079,VALID,34,VALID,0.555469,
2010-05-17, 02:23:05,VALID,1002.18,VALID,0,VALID,97.0241,VALID,0,VALID,25.006,VALID,35,VALID,0.384375,
2010-05-17, 02:24:05,VALID,1002.21,VALID,0,VALID,97.0317,VALID,0,VALID,25.0255,VALID,42,VALID,0.583984,
2010-05-17, 02:25:05,VALID,1002.22,VALID,0,VALID,97.0851,VALID,0,VALID,25.0255,VALID,42,VALID,0.682422,
2010-05-17, 02:26:05,VALID,1002.2,VALID,0,VALID,97.1004,VALID,0,VALID,25.0858,VALID,42,VALID,0.561328,
2010-05-17, 02:27:05,VALID,1002.2,VALID,0,VALID,97.0851,VALID,0,VALID,25.1053,VALID,42,VALID,0.46875,
2010-05-17, 02:28:05,VALID,1002.23,VALID,0,VALID,97.108,VALID,0,VALID,25.0839,VALID,42,VALID,0.294922,
2010-05-17, 02:29:05,VALID,1002.21,VALID,0,VALID,97.1156,VALID,0,VALID,25.1053,VALID,40,VALID,0.696484,
2010-05-17, 02:30:05,VALID,1002.21,VALID,0,VALID,97.0775,VALID,0,VALID,25.2416,VALID,41,VALID,0.628125,
2010-05-17, 02:31:05,VALID,1002.24,VALID,0,VALID,97.1233,VALID,0,VALID,25.2806,VALID,41,VALID,0.4125,
2010-05-17, 02:32:05,VALID,1002.22,VALID,0,VALID,97.1691,VALID,0,VALID,25.2592,VALID,41,VALID,0.438281,
2010-05-17, 02:33:05,VALID,1002.19,VALID,0,VALID,97.1614,VALID,0,VALID,25.337,VALID,24,VALID,0.844141,
2010-05-17, 02:34:05,VALID,1002.17,VALID,0,VALID,97.1385,VALID,0,VALID,25.4169,VALID,18,VALID,0.898828,
2010-05-17, 02:35:05,VALID,1002.19,VALID,0,VALID,97.1462,VALID,0,VALID,25.4753,VALID,26,VALID,0.925,
2010-05-17, 02:36:05,VALID,1002.17,VALID,0,VALID,97.1691,VALID,0,VALID,25.5142,VALID,28,VALID,0.647266,
2010-05-17, 02:37:05,VALID,1002.22,VALID,0,VALID,97.1309,VALID,0,VALID,25.5902,VALID,26,VALID,1.03594,
2010-05-17, 02:38:05,VALID,1002.21,VALID,0,VALID,97.1233,VALID,0,VALID,25.6681,VALID,26,VALID,0.816406,
2010-05-17, 02:39:05,VALID,1002.22,VALID,0,VALID,97.0928,VALID,0,VALID,25.7655,VALID,60,VALID,0.653516,
2010-05-17, 02:40:05,VALID,1002.24,VALID,0,VALID,97.1385,VALID,0,VALID,25.8648,VALID,30,VALID,0.798828,
2010-05-17, 02:41:05,VALID,1002.27,VALID,0,VALID,97.1004,VALID,0,VALID,25.9232,VALID,15,VALID,1.01992,
2010-05-17, 02:42:05,VALID,1002.31,VALID,0,VALID,97.047,VALID,0,VALID,25.9817,VALID,32,VALID,0.833203,
2010-05-17, 02:43:05,VALID,1002.3,VALID,0,VALID,96.9326,VALID,0,VALID,26.0401,VALID,30,VALID,0.851563,
2010-05-17, 02:44:05,VALID,1002.34,VALID,0,VALID,96.78,VALID,0,VALID,26.0401,VALID,48,VALID,0.278906,
2010-05-17, 02:45:05,VALID,1002.29,VALID,0,VALID,96.4825,VALID,0,VALID,26.0187,VALID,48,VALID,0.337109,
2010-05-17, 02:46:05,VALID,1002.29,VALID,0,VALID,96.1926,VALID,0,VALID,25.9992,VALID,48,VALID,0.428516,
2010-05-17, 02:47:05,VALID,1002.32,VALID,0,VALID,95.9484,VALID,0,VALID,25.9797,VALID,75,VALID,0.654297,
2010-05-17, 02:48:05,VALID,1002.3,VALID,0,VALID,95.895,VALID,0.100563,VALID,26.0187,VALID,14,VALID,0.692969,
2010-05-17, 02:49:05,VALID,1002.28,VALID,0,VALID,95.8264,VALID,0.100563,VALID,26.0187,VALID,25,VALID,0.547266,
2010-05-17, 02:50:05,VALID,1002.26,VALID,0,VALID,95.7119,VALID,0.100563,VALID,25.9992,VALID,25,VALID,0.655859,
2010-05-17, 02:51:05,VALID,1002.25,VALID,0,VALID,95.628,VALID,0,VALID,25.9992,VALID,25,VALID,0.239063,
2010-05-17, 02:52:05,VALID,1002.28,VALID,0,VALID,95.5136,VALID,0,VALID,25.9408,VALID,25,VALID,0.208594,
2010-05-17, 02:53:05,VALID,1002.26,VALID,0,VALID,95.4907,VALID,0.100563,VALID,25.9213,VALID,25,VALID,0.403125,
2010-05-17, 02:54:05,VALID,1002.29,VALID,0,VALID,95.5594,VALID,0,VALID,25.9018,VALID,28,VALID,0.430859,
2010-05-17, 02:55:05,VALID,1002.31,VALID,0,VALID,95.7348,VALID,0,VALID,25.9408,VALID,29,VALID,0.115234,
2010-05-17, 02:56:05,VALID,1002.31,VALID,0,VALID,95.7577,VALID,0.100563,VALID,25.9213,VALID,48,VALID,0.00585938,
2010-05-17, 02:57:05,VALID,1002.33,VALID,0,VALID,95.8035,VALID,0,VALID,25.9213,VALID,48,VALID,0.0636719,
2010-05-17, 02:58:05,VALID,1002.34,VALID,0,VALID,95.8264,VALID,0,VALID,25.9213,VALID,48,VALID,0.274609,
2010-05-17, 02:59:05,VALID,1002.34,VALID,0,VALID,95.8187,VALID,0,VALID,25.9408,VALID,53,VALID,0.482031,
2010-05-17, 03:00:05,VALID,1002.36,VALID,0,VALID,95.834,VALID,0,VALID,25.9213,VALID,53,VALID,0.194922,
2010-05-17, 03:01:05,VALID,1002.35,VALID,0,VALID,95.7959,VALID,0,VALID,25.9232,VALID,53,VALID,0.104297,
2010-05-17, 03:02:05,VALID,1002.34,VALID,0,VALID,95.7424,VALID,0,VALID,25.9038,VALID,53,VALID,0,
2010-05-17, 03:03:05,VALID,1002.36,VALID,0,VALID,95.7424,VALID,0,VALID,25.8843,VALID,53,VALID,0,
2010-05-17, 03:04:05,VALID,1002.33,VALID,0,VALID,95.8264,VALID,0,VALID,25.8843,VALID,53,VALID,0.190234,
2010-05-17, 03:05:05,VALID,1002.33,VALID,0,VALID,95.8569,VALID,0,VALID,25.9057,VALID,53,VALID,0.0308594,
2010-05-17, 03:06:05,VALID,1002.33,VALID,0,VALID,95.8798,VALID,0,VALID,25.8648,VALID,53,VALID,0,
2010-05-17, 03:07:05,VALID,1002.33,VALID,0,VALID,95.8721,VALID,0,VALID,25.8434,VALID,53,VALID,0.0171875,
2010-05-17, 03:08:05,VALID,1002.34,VALID,0,VALID,95.8798,VALID,0,VALID,25.8259,VALID,53,VALID,0.498047,
2010-05-17, 03:09:05,VALID,1002.32,VALID,0,VALID,95.9561,VALID,0,VALID,25.8259,VALID,14,VALID,0.751953,
2010-05-17, 03:10:05,VALID,1002.3,VALID,0,VALID,96.1849,VALID,0,VALID,25.8629,VALID,9,VALID,0.417578,
2010-05-17, 03:11:05,VALID,1002.3,VALID,0,VALID,96.246,VALID,0,VALID,25.9038,VALID,9,VALID,0.689453,
2010-05-17, 03:12:05,VALID,1002.29,VALID,0,VALID,96.2841,VALID,0,VALID,25.9018,VALID,4,VALID,0.771094,
2010-05-17, 03:13:05,VALID,1002.29,VALID,0,VALID,96.429,VALID,0,VALID,26.0381,VALID,343,VALID,0.78125,
2010-05-17, 03:14:05,VALID,1002.26,VALID,0,VALID,96.3222,VALID,0,VALID,26.0187,VALID,39,VALID,0.313672,
2010-05-17, 03:15:05,VALID,1002.27,VALID,0,VALID,95.9027,VALID,0,VALID,25.9992,VALID,39,VALID,0.285547,
2010-05-17, 03:16:05,VALID,1002.27,VALID,0,VALID,95.6509,VALID,0.100563,VALID,25.9797,VALID,39,VALID,0.228906,
2010-05-17, 03:17:05,VALID,1002.27,VALID,0,VALID,95.3915,VALID,0.100563,VALID,25.9018,VALID,39,VALID,0.244922,
2010-05-17, 03:18:05,VALID,1002.27,VALID,0,VALID,95.3457,VALID,0.100563,VALID,25.8629,VALID,39,VALID,0.196484,
2010-05-17, 03:19:05,VALID,1002.23,VALID,0,VALID,95.422,VALID,0.100563,VALID,25.8434,VALID,39,VALID,0,
2010-05-17, 03:20:05,VALID,1002.25,VALID,0,VALID,95.6509,VALID,0.100563,VALID,25.8219,VALID,39,VALID,0.320313,
2010-05-17, 03:21:05,VALID,1002.26,VALID,0,VALID,95.4526,VALID,0.100563,VALID,25.785,VALID,39,VALID,0,
2010-05-17, 03:22:05,VALID,1002.25,VALID,0,VALID,95.4068,VALID,0.100563,VALID,25.746,VALID,39,VALID,0,
2010-05-17, 03:23:05,VALID,1002.29,VALID,0,VALID,95.4831,VALID,0.100563,VALID,25.7071,VALID,39,VALID,0.29375,
2010-05-17, 03:24:05,VALID,1002.34,VALID,0,VALID,95.6662,VALID,0.100563,VALID,25.6856,VALID,39,VALID,0.341016,
2010-05-17, 03:25:05,VALID,1002.35,VALID,0,VALID,95.834,VALID,0.100563,VALID,25.6662,VALID,149,VALID,0.585547,
2010-05-17, 03:26:05,VALID,1002.34,VALID,0,VALID,95.8798,VALID,0.100563,VALID,25.6486,VALID,150,VALID,0.617969,
2010-05-17, 03:27:05,VALID,1002.36,VALID,0,VALID,96.0247,VALID,0.100563,VALID,25.6486,VALID,150,VALID,0.783984,
2010-05-17, 03:28:05,VALID,1002.35,VALID,0,VALID,96.2154,VALID,0.100563,VALID,25.6272,VALID,150,VALID,0.65625,
2010-05-17, 03:29:05,VALID,1002.4,VALID,0,VALID,96.3375,VALID,0.100563,VALID,25.6486,VALID,150,VALID,0.467187,
2010-05-17, 03:30:05,VALID,1002.4,VALID,0,VALID,96.4138,VALID,0,VALID,25.6097,VALID,150,VALID,0.358984,
2010-05-17, 03:31:05,VALID,1002.39,VALID,0,VALID,96.4748,VALID,0,VALID,25.6116,VALID,150,VALID,0.280469,
2010-05-17, 03:32:05,VALID,1002.35,VALID,0,VALID,96.4901,VALID,0,VALID,25.5902,VALID,150,VALID,0.00820312,
2010-05-17, 03:33:05,VALID,1002.37,VALID,0,VALID,96.5282,VALID,0,VALID,25.5318,VALID,150,VALID,0.00820312,
2010-05-17, 03:34:05,VALID,1002.37,VALID,0,VALID,96.5282,VALID,0,VALID,25.5337,VALID,150,VALID,0,
2010-05-17, 03:35:05,VALID,1002.37,VALID,0,VALID,96.5053,VALID,0,VALID,25.4948,VALID,150,VALID,0,
2010-05-17, 03:36:05,VALID,1002.39,VALID,0,VALID,96.5282,VALID,0,VALID,25.4539,VALID,150,VALID,0.191797,
2010-05-17, 03:37:05,VALID,1002.35,VALID,0,VALID,96.5359,VALID,0,VALID,25.4149,VALID,150,VALID,0.214453,
2010-05-17, 03:38:05,VALID,1002.37,VALID,0,VALID,96.4672,VALID,0,VALID,25.3974,VALID,150,VALID,0.25625,
2010-05-17, 03:39:05,VALID,1002.33,VALID,0,VALID,96.4062,VALID,0,VALID,25.3,VALID,150,VALID,0.189063,
2010-05-17, 03:40:05,VALID,1002.36,VALID,0,VALID,96.4443,VALID,0,VALID,25.3195,VALID,150,VALID,0.211719,
2010-05-17, 03:41:05,VALID,1002.32,VALID,0,VALID,96.5435,VALID,0,VALID,25.2981,VALID,150,VALID,0,
2010-05-17, 03:42:05,VALID,1002.35,VALID,0,VALID,96.6045,VALID,0,VALID,25.3,VALID,150,VALID,0,
2010-05-17, 03:43:05,VALID,1002.38,VALID,0,VALID,96.5969,VALID,0,VALID,25.2202,VALID,150,VALID,0,
2010-05-17, 03:44:05,VALID,1002.4,VALID,0,VALID,96.5511,VALID,0,VALID,25.1618,VALID,150,VALID,0.296094,
2010-05-17, 03:45:05,VALID,1002.37,VALID,0,VALID,96.5511,VALID,0,VALID,25.1442,VALID,150,VALID,0,